Location: Basses Si�yes
(44.0835°N, 6.2037°E)
Time: 09:33:11
(UTC+00:00)

ATLAS 2AS CENTAUR R/B - Pass Details

Date: 27 February 2020
Orbit: 929 x 1283 km, 63.7° (Epoch: 05 April)

Event Time Altitude Azimuth Distance (km) Brightness Sun altitude
Rises 19:46:21 0° 193° (SSW) 4,158 5.8 -26.9°
Reaches altitude 10° 19:49:11 10° 189° (S) 3,225 5.1 -27.3°
Enters shadow 19:53:44 35° 167° (SSE) 1,931 3.7 -28.1°
